FW7135 Weather Reports


Display with metric or nautical units.
time (UTC)temp
F
wind
direction
speed
MPH
gust
MPH
rain 1hr
in
rain 24hr
in
rain mn
in
humidity
%
barometer
mb
20260906213048 84 207 5.0 13.0 0.00 0.00 0.00 39 1023.1
20260906211548 84 171 5.0 13.0 0.00 0.00 0.00 36 1022.9
20260906210055 85 184 3.0 12.0 0.00 0.00 0.00 39 1023.1
20260906204546 83 209 5.0 19.0 0.00 0.00 0.00 41 1023.5
20260906203044 81 193 3.0 8.0 0.00 0.00 0.00 42 1023.6
20260906201555 82 170 5.0 15.0 0.00 0.00 0.00 42 1023.8
20260906200048 83 193 4.0 9.0 0.00 0.00 0.00 38 1023.9
20260906194553 84 158 3.0 7.0 0.00 0.00 0.00 37 1024.0
20260906193049 85 207 3.0 9.0 0.00 0.00 0.00 36 1024.2
20260906191548 83 160 3.0 12.0 0.00 0.00 0.00 39 1024.3
20260906190050 84 169 5.0 10.0 0.00 0.00 0.00 36 1024.4
20260906184619 83 53 4.0 12.0 0.00 0.00 0.00 38 1024.6
20260906183052 82 150 5.0 11.0 0.00 0.00 0.00 37 1025.1
20260906181551 84 215 3.0 11.0 0.00 0.00 0.00 37 1025.2
20260906180043 83 194 3.0 9.0 0.00 0.00 0.00 37 1025.5
20260906174550 82 216 2.0 7.0 0.00 0.00 0.00 40 1025.6
20260906173055 82 214 2.0 8.0 0.00 0.00 0.00 40 1025.7
20260906171547 80 195 2.0 9.0 0.00 0.00 0.00 39 1025.8
20260906170043 78 18 3.0 8.0 0.00 0.00 0.00 41 1025.8
20260906164551 78 98 1.0 6.0 0.00 0.00 0.00 42 1026.0
20260906163048 78 326 1.0 3.0 0.00 0.00 0.00 41 1026.2
20260906161546 75 15 2.0 5.0 0.00 0.00 0.00 44 1026.2
20260906160043 74 29 2.0 4.0 0.00 0.00 0.00 44 1026.2
20260906154551 73 51 2.0 7.0 0.00 0.00 0.00 45 1026.0
20260906153047 72 40 2.0 6.0 0.00 0.00 0.00 47 1026.1
20260906151551 71 340 2.0 7.0 0.00 0.00 0.00 48 1026.0
20260906150053 69 18 2.0 5.0 0.00 0.00 0.00 53 1026.0
20260906144548 67 31 3.0 5.0 0.00 0.00 0.00 54 1025.9
20260906143046 66 344 2.0 4.0 0.00 0.00 0.00 56 1025.9
20260906141546 65 340 4.0 7.0 0.00 0.00 0.00 58 1025.8
20260906140053 64 23 3.0 5.0 0.00 0.00 0.00 60 1025.6
20260906134556 62 15 3.0 5.0 0.00 0.00 0.00 62 1025.7
20260906133055 61 29 1.0 4.0 0.00 0.00 0.00 64 1025.5
20260906131545 60 6 2.0 4.0 0.00 0.00 0.00 64 1025.3
20260906130056 60 352 2.0 5.0 0.00 0.00 0.00 64 1025.1
20260906124543 60 25 2.0 6.0 0.00 0.00 0.00 63 1025.3
20260906123053 60 354 2.0 3.0 0.00 0.00 0.00 63 1025.2
20260906121558 60 6 2.0 4.0 0.00 0.00 0.00 62 1025.2
20260906114543 61 356 1.0 3.0 0.00 0.00 0.00 60 1024.9
20260906113056 61 10 1.0 5.0 0.00 0.00 0.00 60 1024.9
20260906111551 61 0 0.0 0.0 0.00 0.00 0.00 60 1024.7
20260906110048 61 0 0.0 0.0 0.00 0.00 0.00 60 1024.7
20260906104544 61 0 0.0 0.0 0.00 0.00 0.00 60 1024.6
20260906103055 60 0 0.0 0.0 0.00 0.00 0.00 62 1024.9
20260906101548 58 0 0.0 0.0 0.00 0.00 0.00 64 1024.8
20260906100046 59 0 0.0 0.0 0.00 0.00 0.00 64 1024.9
20260906094542 61 0 0.0 0.0 0.00 0.00 0.00 63 1025.1
20260906093056 61 0 0.0 0.0 0.00 0.00 0.00 63 1025.0
20260906091547 60 0 0.0 0.0 0.00 0.00 0.00 68 1024.9
20260906090042 62 0 0.0 0.0 0.00 0.00 0.00 66 1024.9
20260906084549 62 0 0.0 0.0 0.00 0.00 0.00 66 1024.9
20260906083052 61 0 0.0 0.0 0.00 0.00 0.00 69 1025.0
20260906081548 63 0 0.0 0.0 0.00 0.00 0.00 66 1025.1
20260906080046 63 0 0.0 0.0 0.00 0.00 0.00 65 1024.9
20260906074542 63 0 0.0 3.0 0.00 0.00 0.00 69 1025.2
20260906073051 61 0 0.0 1.0 0.00 0.00 0.00 77 1025.3
20260906071547 61 0 0.0 0.0 0.00 0.00 0.00 77 1025.3
20260906070048 61 0 0.0 0.0 0.00 0.00 0.00 77 1025.3
20260906064554 61 0 0.0 0.0 0.00 0.00 0.00 77 1025.5
20260906063048 61 0 0.0 0.0 0.00 0.00 0.00 76 1025.5
20260906061550 62 0 0.0 0.0 0.00 0.00 0.00 75 1025.4
20260906060045 63 352 3.0 8.0 0.00 0.00 0.00 74 1025.3
20260906054553 64 0 0.0 6.0 0.00 0.00 0.00 71 1024.9
20260906053049 64 187 2.0 6.0 0.00 0.00 0.00 71 1024.9
20260906051551 64 207 3.0 7.0 0.00 0.00 0.00 71 1025.0
20260906050046 65 153 2.0 7.0 0.00 0.00 0.00 71 1025.0
20260906044552 65 162 3.0 7.0 0.00 0.00 0.00 71 1025.1
20260906043046 65 195 2.0 7.0 0.00 0.00 0.00 71 1025.3
20260906041547 65 186 1.0 5.0 0.00 0.00 0.00 70 1025.2
20260906040047 66 204 2.0 5.0 0.00 0.00 0.00 70 1025.3
20260906034601 66 0 0.0 3.0 0.00 0.00 0.00 69 1025.6
20260906033049 67 175 2.0 6.0 0.00 0.00 0.00 69 1025.5
20260906031546 67 224 2.0 6.0 0.00 0.00 0.00 69 1025.1
20260906030054 67 204 2.0 5.0 0.00 0.00 0.00 69 1025.0
20260906024553 67 205 2.0 4.0 0.00 0.00 0.00 69 1024.9
20260906023051 67 169 1.0 6.0 0.00 0.00 0.00 66 1024.8
20260906021547 66 0 0.0 0.0 0.00 0.00 0.00 47 1024.6
20260906020057 68 0 0.0 0.0 0.00 0.00 0.00 45 1024.0
20260906014553 69 0 0.0 0.0 0.00 0.00 0.00 43 1023.8
20260906013048 71 0 0.0 0.0 0.00 0.00 0.00 41 1023.8
20260906011546 73 0 0.0 0.0 0.00 0.00 0.00 39 1023.9
20260906010050 75 0 0.0 3.0 0.00 0.00 0.00 38 1024.0
20260906004545 75 3 1.0 3.0 0.00 0.00 0.00 38 1024.2
20260906003050 75 319 2.0 6.0 0.00 0.00 0.00 38 1024.3
20260906001547 75 14 1.0 3.0 0.00 0.00 0.00 39 1024.4
20260906000049 76 1 1.0 5.0 0.00 0.00 0.00 38 1024.3
20260905234553 77 4 1.0 5.0 0.00 0.00 0.00 37 1024.2
20260905233050 79 0 0.0 0.0 0.00 0.00 0.00 33 1024.1
20260905231549 80 0 0.0 0.0 0.00 0.00 0.00 33 1023.9
20260905230049 80 0 0.0 1.0 0.00 0.00 0.00 33 1024.0
20260905224552 79 0 0.0 3.0 0.00 0.00 0.00 36 1024.1
20260905223051 77 0 0.0 4.0 0.00 0.00 0.00 38 1024.4
20260905221548 77 0 0.0 3.0 0.00 0.00 0.00 36 1024.4
20260905220047 77 303 1.0 7.0 0.00 0.00 0.00 36 1024.5
20260905214554 78 236 0.0 4.0 0.00 0.00 0.00 35 1024.6